Starlink 32199

operational
NORAD ID: 60320 Int'l Des: 2024-133 Owner: SPXS Country: US Constellation: starlink
LEOCIRCULAR

关于 Starlink 32199

正在加载描述...

实时位置

正在加载3D地球...

即将过境

高度历史

Altitude vs Time

uPlot chart will show altitude changes over time

两行轨道根数

1 60320U 24133V 25304.38085130 -.00000567 00000-0 -70095-5 0 9992
2 60320 53.1604 177.6080 0001355 88.5902 271.5254 15.30183919 71843
Epoch: Oct 31, 2025 • Age: 15 hours

当前状态

高度 479.3 km
速度 7.63 km/s
星下点 -14.05°S, 36.7°W
发射日期 Jul 28, 2024
运行时间 1.2 years
类型 internet

技术详情

分类 Payload
质量 730.00 kg
干质量 700.00 kg
总质量 730.00 kg
长度 0.30 m
直径 4.10 m
跨度 29.00 m
形状 Box + pan
制造商 SPXS
平台类型 Starlink V2M
阶段状态 In Orbit
所有者/国家 SPXS/US

大型星座

Loading constellations...